628  
ASUS43 KIWX 091500  
RWRIWX  
 
KIWX WEATHER ROUNDUP  
NATIONAL WEATHER SERVICE NORTHERN INDIANA  
1100 AM EDT SUN AUG 09 2020  
 
NOTE: "FAIR" INDICATES FEW OR NO CLOUDS BELOW 12,000 FEET WITH NO  
SIGNIFICANT WEATHER AND/OR S TO VISIBILITY
.  
 
* THESE STATIONS ARE NOT UNDER NWS QUALITY CONTROL. THEY ALSO MAY NOT  
REPORT WEATHER SUCH AS PRECIPITATION OR FOG.
 
 
INZ001>027-091600-  
NORTHERN INDIANA  
 
CITY SKY/WX TMP DP RH WIND PRES REMARKS
 
GARY* MOSUNNY 81 N/A N/A S3 30.10F  
SOUTH BEND N/A N/A N/A N/A MISG 30.11F  
GOSHEN SUNNY 80 70 71 W7 30.12F  
MONTICELLO* MOSUNNY 79 68 68 S6 30.12S  
AUBURN* SUNNY 79 68 69 CALM 30.15S  
FORT WAYNE PTSUNNY 78 68 71 W7 30.15F  
HUNTINGTON* SUNNY 79 67 67 SW5 30.15S  
 

 
INZ028>050-091600-  
CENTRAL INDIANA  
 
CITY SKY/WX TMP DP RH WIND PRES REMARKS
 
LAFAYETTE MOSUNNY 83 70 64 VRB6 30.11S  
KOKOMO* SUNNY 81 71 71 S6 30.15S  
MUNCIE* SUNNY 81 67 62 SW5 30.16R  
PORTLAND* FAIR 79 61 53 SW5 30.16S  
INDIANAPOLIS PTSUNNY 78 67 68 S9 30.14R  
 

 
MIZ043>046-050>051-056>058-064>065-071>073-077>080-091600-  
SOUTHWEST LOWER MICHIGAN  
 
CITY SKY/WX TMP DP RH WIND PRES REMARKS
 
BATTLE CREEK SUNNY 81 71 71 W7 30.12F  
BENTON HARBOR SUNNY 82 67 60 W9 30.10S  
COLDWATER* SUNNY 80 70 71 W3 30.13F  
HILLSDALE* CLOUDY 80 70 73 W6 30.13F  
HOLLAND MOSUNNY 80 69 69 SW9 30.09F  
GRAND RAPIDS PTSUNNY 81 71 71 SW8 30.08F  
KALAMAZOO SUNNY 82 69 64 SW7 30.11F  
STURGIS* SUNNY 80 70 71 W3 30.12F  
THREE RIVERS* FAIR 82 69 65 W6 30.12F  
 

 
OHZ001>008-015>018-024>025-091600-  
NORTHWEST OHIO  
 
CITY SKY/WX TMP DP RH WIND PRES REMARKS
 
WAUSEON* FAIR 81 73 78 VRB6G12 30.13F  
DEFIANCE SUNNY 80 66 62 VRB6 30.13F  
FINDLAY SUNNY 82 65 56 SW7 30.14F  
TOLEDO EXPRESS SUNNY 81 66 60 SW5 30.12F  
VAN WERT* FAIR 79 66 65 W5 30.16S  
LIMA SUNNY 79 66 64 W6 30.16F  
 

 
AND FOR LAKE MICHIGAN COASTAL AND OPEN LAKE BUOY OBSERVATIONS  
 
STATION/POSITION TEMP WIND PRES VSBY WAVE
 
AIR SEA DIR/SP/G HT/PER  
(F) (DEG/KT/KT) (MB) (MI) (FT/S)  
CALUMET HARBOR 78 190/ 7/ 10 1018.3  
MICHIGAN CITY 78 240/ 8/ 8 N/A  
SAINT JOSEPH 76 210/ 9/ 12 1020.3  
SOUTH LAKE BUOY 73 71 180/ 8/ 8 1018.3F  
MICHIGAN CITY 73 74 N/A 1  
 

 

 
 
 
CLICK HERE TO GO TO PREVIOUS BULLETINS.

The Nexlab IN Page
The Nexlab OH Page
The Nexlab MI Page Main Text Page